Theta_e
308 308 308 309 309 309 309 309 310 311 312 313 314 314 314 314 314 313 311 311 313 312 313 313 314 314 314 312 310 305 307 307 309 311 313 311 313 310 307 310 309 308 309 306 311
308 308 308 308 309 309 309 309 309 311 313 314 315 315 316 316 315 312 312 313 314 313 312 312 312 312 310 314 312 307 307 307 307 308 312 312 312 311 311 310 310 309 306 305 305
308 308 308 309 308 308 309 309 309 311 313 314 316 316 316 316 311 309 314 314 313 312 313 313 313 312 312 312 313 309 309 308 310 309 311 312 312 310 312 312 308 309 305 303 302
309 309 309 309 309 308 309 309 310 310 313 315 317 317 316 315 311 313 312 314 313 311 313 313 310 311 310 312 311 313 312 310 312 312 312 313 311 312 310 308 303 303 302 301 301
309 309 309 309 308 308 309 310 312 314 314 316 317 317 315 312 314 314 312 311 312 312 313 310 311 310 310 310 310 314 312 310 311 310 310 309 311 311 305 303 302 301 300 300 299
313 313 312 312 311 310 311 313 315 316 316 317 318 316 313 316 315 315 314 312 311 311 311 311 309 309 309 310 311 309 309 309 309 310 309 310 309 309 304 303 302 301 300 299 298
316 315 315 315 314 314 313 313 315 316 317 318 318 312 312 314 315 315 315 313 311 311 310 311 310 310 308 310 309 310 311 308 308 308 309 307 309 308 303 303 301 300 299 298 297
317 316 316 315 315 314 314 314 315 317 318 319 315 312 312 313 313 314 315 312 311 311 311 311 311 308 310 307 306 310 307 312 311 309 308 309 312 306 302 304 301 299 298 297 296
318 318 317 316 315 315 314 314 316 317 318 317 314 312 313 311 311 313 314 312 311 311 311 310 310 308 308 308 309 306 313 309 310 309 309 309 311 305 302 302 300 298 297 297 296
319 319 318 317 316 315 314 315 317 318 315 314 314 312 311 311 309 312 313 312 309 308 309 308 305 308 305 308 314 312 309 308 309 310 309 310 309 304 301 301 299 297 296 296 295
321 320 320 319 317 316 315 317 314 312 314 312 313 312 310 309 309 309 310 309 307 307 310 307 309 311 309 307 309 308 308 310 308 308 311 309 309 304 302 300 299 298 296 295 294
323 323 322 320 318 316 316 317 316 312 314 312 313 311 311 309 309 307 309 309 309 309 306 307 309 309 307 306 308 307 308 308 307 308 310 309 309 304 302 301 299 298 296 295 294
324 324 324 322 320 316 316 317 316 315 317 316 312 312 313 309 310 309 307 307 309 307 307 308 310 306 307 307 309 308 308 308 310 310 308 309 309 305 301 299 297 296 295 294 293
324 323 322 323 317 317 316 320 317 318 318 317 317 315 309 309 311 308 308 308 308 309 307 307 307 309 307 308 308 308 306 307 309 311 313 308 317 306 303 301 298 296 295 294 293
324 323 322 321 319 316 319 318 317 316 326 315 315 308 308 314 309 308 307 309 309 309 309 311 308 309 311 310 308 312 307 307 309 310 310 308 312 308 303 303 300 297 295 293 292
322 323 322 320 318 318 319 318 318 321 324 319 310 309 312 309 308 306 308 307 307 309 310 311 308 308 310 308 308 305 307 307 305 307 312 311 314 310 305 306 301 297 295 293 291
321 322 320 320 319 318 318 318 324 322 321 318 313 309 313 309 308 308 309 309 312 314 313 311 310 306 306 308 306 308 311 316 314 313 316 307 310 313 305 303 301 298 295 293 291
321 320 320 320 319 319 317 322 322 320 320 309 309 309 314 308 309 308 309 310 309 311 312 315 319 308 305 311 311 308 313 317 317 315 314 308 312 311 301 300 300 297 295 293 291
320 320 319 319 319 318 318 324 323 321 317 311 310 312 311 309 311 307 308 310 310 309 318 315 316 308 306 306 310 308 312 310 310 297 308 310 309 303 299 299 298 296 294 292 291
318 317 318 318 319 315 321 325 322 317 317 314 320 315 313 310 311 308 307 307 310 308 310 313 316 308 307 307 307 308 308 314 312 314 312 311 311 312 302 299 297 296 294 293 291
316 318 317 318 318 317 323 322 322 317 319 316 320 321 314 312 311 310 311 309 305 307 310 310 313 310 307 308 309 309 309 310 311 313 313 309 309 304 304 300 298 297 295 293 291
315 318 314 317 320 317 323 320 316 317 316 320 318 319 318 313 311 313 313 310 306 306 310 309 312 311 309 307 307 308 308 310 315 311 307 308 311 301 301 300 298 297 295 293 291
316 316 313 315 322 319 311 313 315 318 319 319 320 319 318 316 316 312 311 311 309 307 310 311 315 318 316 310 308 309 308 307 308 309 309 315 312 301 299 299 298 296 295 293 291
308 316 312 310 315 318 316 315 315 313 317 317 317 317 317 319 317 318 318 312 311 311 311 312 312 313 318 313 309 310 309 306 310 313 311 313 306 303 300 299 298 297 295 293 292
305 309 307 313 315 316 313 312 315 316 316 314 315 314 316 315 315 314 315 309 309 313 312 313 316 312 306 307 308 303 305 307 308 310 316 309 308 305 303 301 299 297 295 294 292
304 304 304 305 306 313 316 315 314 314 316 316 315 312 314 311 313 312 311 311 312 308 312 311 314 311 311 309 311 310 309 307 307 307 307 307 308 303 302 298 299 297 296 294 294
300 299 301 304 304 307 313 314 314 313 314 310 312 312 313 312 311 309 309 309 310 310 310 310 310 312 314 303 305 311 308 309 308 304 308 309 307 297 299 301 300 298 295 295 293
Wind_Speed
3 3 3 4 4 5 5 5 6 8 10 12 13 13 14 15 16 10 3 1 1 4 2 4 4 5 5 4 4 3 4 2 4 6 3 0 2 1 2 2 4 3 4 7 9
3 3 4 4 5 5 6 6 7 8 9 11 13 13 14 16 14 5 1 2 3 4 3 4 2 4 4 2 3 4 3 6 4 4 3 1 2 1 2 5 2 2 6 16 15
6 5 5 5 6 7 8 8 7 8 9 11 13 13 13 13 4 1 0 5 5 4 5 5 6 3 4 2 3 2 4 3 2 4 2 1 3 1 2 1 2 3 3 12 16
7 8 7 7 7 7 8 8 9 9 10 11 13 13 11 5 1 1 2 5 6 7 8 6 4 3 3 1 1 1 2 3 2 0 2 2 1 2 2 2 6 8 7 7 14
9 9 9 9 9 8 8 8 8 9 10 11 12 12 5 5 6 2 3 5 7 8 5 4 3 4 3 3 3 3 2 3 3 4 4 1 5 0 4 7 8 12 14 12 13
9 9 8 8 9 9 8 8 9 9 10 10 11 8 2 3 3 3 4 5 5 8 5 5 6 4 4 3 3 3 2 5 5 3 4 4 2 5 2 6 10 11 11 10 13
10 10 9 8 8 7 8 9 9 10 10 11 9 3 2 11 4 4 5 4 5 5 5 4 6 3 5 2 0 2 4 6 3 1 4 6 5 4 4 7 10 10 9 10 13
11 11 10 10 9 9 9 8 9 10 11 9 4 1 6 5 6 8 7 5 6 5 4 5 6 5 2 4 5 1 4 3 2 3 1 4 3 1 6 5 7 7 7 9 12
13 12 12 11 11 10 9 9 9 9 7 3 1 1 7 2 4 9 10 7 9 8 6 9 5 3 4 5 4 5 3 4 7 1 2 2 3 4 5 7 7 6 7 8 9
14 14 13 12 12 11 10 10 9 7 1 2 2 2 3 4 4 7 8 14 4 6 4 5 5 3 3 4 6 6 4 4 5 3 3 2 3 4 6 7 7 6 6 8 9
17 14 14 12 11 11 9 3 2 2 3 8 6 4 2 3 6 5 7 7 4 5 6 1 4 9 15 11 4 6 4 5 4 3 4 7 5 3 4 6 6 6 7 8 8
19 15 16 14 11 10 6 2 3 2 7 12 5 6 7 6 3 4 13 6 5 5 6 4 9 11 5 6 5 4 4 5 4 4 3 5 6 1 1 2 4 7 7 7 5
18 18 17 16 13 10 10 10 1 2 3 7 7 7 7 14 9 10 14 5 4 7 10 9 5 6 8 5 7 5 6 5 8 1 3 1 4 5 2 3 5 4 4 4 5
21 19 15 14 9 11 7 12 10 4 4 6 6 6 5 8 6 4 16 7 4 12 8 7 5 6 5 5 9 6 9 6 5 4 5 1 5 4 6 6 6 6 6 5 5
23 23 18 19 6 9 3 10 11 2 5 2 2 1 3 6 6 3 4 2 7 7 7 7 8 7 6 7 6 3 6 7 3 3 1 2 3 2 6 8 10 11 9 8 7
25 25 22 17 18 9 11 19 12 4 9 3 2 4 5 1 2 3 3 4 3 5 2 4 1 6 8 3 7 9 7 6 4 3 4 11 10 4 7 8 12 12 10 11 9
25 22 25 19 5 18 19 11 4 5 3 5 4 5 2 5 2 3 6 6 7 5 6 1 5 3 4 6 3 3 7 1 2 1 6 2 5 9 6 8 17 19 15 12 9
24 23 27 27 22 20 17 3 7 7 8 4 4 2 7 7 5 6 7 6 6 3 3 6 5 11 7 10 8 8 8 6 7 5 2 2 7 5 0 1 12 16 15 12 10
23 24 22 21 25 29 5 9 7 6 6 10 3 3 4 4 5 5 7 6 10 12 11 7 6 2 3 3 10 6 8 5 6 2 2 5 5 1 3 5 12 15 14 14 12
17 9 21 21 27 19 8 19 8 8 4 4 14 12 11 8 10 9 10 6 6 15 3 5 3 2 3 3 2 5 8 4 0 3 4 3 4 6 7 10 13 17 18 16 13
13 4 8 28 30 5 9 7 7 7 9 6 12 7 7 8 12 8 8 3 8 8 12 6 5 1 5 7 10 4 4 2 4 4 4 2 5 4 9 16 20 20 18 16 14
7 5 15 38 9 3 13 5 4 4 10 12 4 14 14 12 10 14 15 6 9 10 11 7 4 5 7 1 0 1 7 7 6 5 2 2 6 1 4 13 16 17 16 13 14
3 4 15 10 9 10 4 4 4 5 7 7 8 7 4 9 7 13 8 2 7 9 15 10 4 3 1 2 2 6 5 3 3 2 8 5 5 3 4 9 14 18 16 14 13
4 4 2 2 2 10 11 7 6 8 6 4 1 3 3 7 7 7 6 3 2 4 5 5 5 7 10 4 3 6 6 6 6 5 6 14 3 4 4 10 12 14 13 14 16
1 1 3 4 8 9 11 11 9 8 11 10 5 7 4 6 4 5 5 3 1 8 3 4 6 4 2 3 3 4 4 7 10 9 10 6 10 6 11 14 18 20 13 14 15
3 2 2 2 2 7 18 12 15 11 8 5 9 14 14 7 7 7 7 4 4 1 3 4 3 4 4 3 3 4 8 8 7 5 5 2 15 8 3 7 10 16 18 19 17
1 2 2 2 2 1 4 9 13 17 6 3 10 9 16 20 6 4 3 6 6 8 7 7 6 6 3 2 3 6 17 16 8 6 12 12 12 7 8 15 19 17 17 19 16
Wind_Direction
2 360 5 1 356 358 357 356 356 357 356 353 349 346 341 335 330 320 278 206 180 160 144 130 79 57 64 71 63 119 64 164 208 168 203 303 80 342 341 11 4 33 78 358 343
307 322 332 335 336 340 341 343 343 347 350 350 348 345 341 336 329 314 188 175 157 155 145 129 78 51 47 59 31 82 107 213 193 199 198 286 165 221 123 350 26 40 60 30 44
299 301 307 313 322 325 331 334 332 335 340 343 346 344 340 336 342 329 144 166 158 155 131 112 107 74 67 27 20 147 176 201 233 228 212 225 298 137 126 61 82 296 27 22 35
291 297 299 301 305 313 318 323 328 328 334 338 343 344 339 338 300 181 133 169 168 158 141 120 53 65 88 126 61 53 238 199 275 207 158 232 276 330 98 111 83 80 72 50 35
290 292 296 297 297 301 309 322 327 331 327 334 341 346 2 20 256 215 173 163 172 165 158 126 115 127 163 163 127 161 257 176 263 277 255 30 247 322 35 94 82 73 56 44 36
290 292 296 300 301 301 309 318 323 327 326 328 335 341 71 271 232 226 188 175 180 178 158 147 166 176 118 147 166 187 267 278 273 245 229 196 74 132 175 110 66 61 56 46 40
287 292 295 297 302 307 310 311 317 319 317 321 325 334 115 241 222 203 189 187 183 182 148 181 148 121 129 130 169 120 310 319 251 251 220 141 63 46 71 88 67 54 52 47 35
283 286 291 294 297 301 303 307 310 311 312 311 311 131 241 249 235 219 200 152 152 141 130 147 149 101 80 112 25 51 51 347 269 157 342 164 187 49 336 111 75 61 47 47 37
280 282 286 290 293 296 300 307 305 301 305 295 266 173 261 237 208 211 188 161 138 121 100 114 95 98 52 102 20 2 239 217 315 218 119 188 177 7 349 97 91 67 54 50 38
275 279 282 286 290 294 302 311 299 283 198 176 121 8 236 225 162 163 174 155 129 118 71 64 59 98 63 117 221 194 215 239 235 202 158 190 224 61 45 93 102 90 70 57 51
267 273 279 282 284 290 307 315 329 285 224 193 189 220 147 127 138 162 157 119 101 82 157 58 131 205 199 198 142 144 181 208 236 233 173 223 247 74 113 105 113 102 90 72 53
262 265 269 269 269 275 282 262 212 200 298 241 229 271 237 175 136 197 166 148 160 171 117 75 224 219 140 161 157 146 164 238 286 230 176 256 235 79 79 115 150 136 116 104 93
261 262 264 253 246 239 236 232 189 15 268 272 195 196 202 170 210 190 164 148 163 148 194 180 205 161 146 147 168 206 192 208 226 37 227 318 242 204 68 108 114 103 120 107 106
254 251 262 264 196 213 225 258 195 28 296 250 219 256 142 141 233 186 173 149 192 197 166 232 221 139 166 181 169 216 203 181 185 133 237 182 283 231 176 170 174 162 158 139 107
251 251 254 248 195 170 240 200 178 99 269 327 124 76 147 170 134 346 173 81 177 175 146 232 163 180 188 194 156 243 148 178 149 185 74 207 287 224 135 209 195 188 175 161 146
252 250 244 242 227 206 213 153 123 123 230 258 125 164 127 105 77 109 134 59 132 127 284 233 81 157 191 109 153 151 85 60 54 106 257 196 199 213 196 199 175 185 180 169 161
251 253 239 223 214 211 175 151 197 202 293 200 191 180 156 153 156 145 162 176 168 140 221 188 207 184 141 94 60 137 126 173 301 223 233 140 191 248 193 179 176 176 178 174 165
248 245 249 234 222 189 170 226 205 204 211 94 118 97 181 158 199 173 145 191 242 144 128 174 271 173 191 190 171 190 173 165 206 204 233 64 222 253 8 186 167 167 168 160 163
247 238 239 227 215 184 187 221 214 192 195 145 127 167 234 212 172 143 201 206 206 184 189 172 263 165 169 157 152 193 207 154 106 31 54 208 278 248 96 119 151 162 161 174 176
220 217 233 213 202 175 224 234 223 177 153 175 213 184 187 190 172 187 183 199 208 190 207 205 298 192 173 121 51 172 157 132 86 206 242 247 259 240 197 181 172 176 179 181 178
205 224 196 196 181 207 228 232 232 186 185 178 212 246 207 186 192 194 213 221 200 182 188 142 183 190 127 208 177 161 196 187 148 173 179 231 247 198 197 183 185 184 184 182 177
169 217 171 163 194 199 230 202 149 208 204 234 240 214 212 183 200 207 214 227 164 148 179 186 137 185 200 231 286 225 185 181 191 208 233 140 257 40 240 177 177 182 183 182 184
214 197 180 190 214 208 166 211 220 188 187 196 220 217 152 204 219 208 195 164 172 160 162 173 173 157 249 322 309 215 186 173 102 85 191 160 256 11 98 153 176 177 184 183 179
302 169 207 228 162 224 203 205 206 202 232 179 312 143 154 205 210 218 170 177 209 165 144 102 154 192 212 162 130 178 180 179 173 204 188 228 192 213 187 168 176 189 188 187 189
102 359 346 198 229 205 175 172 190 201 214 166 181 201 206 204 176 208 160 134 335 157 91 119 205 183 170 132 107 163 160 180 201 215 204 224 218 203 193 191 194 197 185 181 188
196 161 179 269 351 252 218 196 201 208 192 199 212 203 192 192 214 189 151 175 175 58 117 145 174 146 198 168 208 248 220 193 203 211 267 239 259 176 179 119 177 192 184 193 194
135 49 107 175 263 259 238 214 222 202 211 145 216 180 204 212 182 122 131 178 165 162 176 170 151 153 199 144 113 284 224 203 189 189 192 210 226 171 189 190 195 195 188 190 183